Altoona, PA

7:56 PM EDT on October 22, 2019 (GMT -0400)
Altoona-Blair County

Weather History for KAOO - August, 2019

Change the Weather History Date:

Friday, August 9, 2019

  Actual Average Record
Temperature  
Mean Temperature 70 °F 70 °F  
Max Temperature 79 °F 81 °F 91 °F (2001)
Min Temperature 61 °F 59 °F 46 °F (1989)
Degree Days  
Heating Degree Days 0 1  
Month to date heating degree days 0 1  
Since 1 June heating degree days 38 69  
Since 1 July heating degree days 0 11  
Cooling Degree Days 5 6  
Month to date cooling degree days 66 54  
Year to date cooling degree days 528 381  
Since 1 June cooling degree days 459 348  
Growing Degree Days 20 (Base 50)    
Moisture  
Dew Point 58 °F    
Average Humidity 67    
Maximum Humidity 93    
Minimum Humidity 40    
Precipitation  
Precipitation 0.02 in 0.09 in 1.05 in (2007)
Month to date precipitation 1.03 0.84  
Year to date precipitation 27.93 21.76  
Sea Level Pressure  
Sea Level Pressure 29.86 in    
Wind  
Wind Speed 8 mph (West)    
Max Wind Speed 16 mph    
Max Gust Speed 24 mph    
Visibility 9 miles    
Events      
T = Trace of Precipitation, MM = Missing Value Source: NWS Daily Summary

Daily Weather History Graph

Daily Weather History Graph

Search for Another Location

Airport or City:

Astronomy

Aug. 09, 2019 Rise Set
Actual Time 6:18 AM EDT 8:18 PM EDT
Civil Twilight 5:48 AM EDT 8:48 PM EDT
Nautical Twilight 5:12 AM EDT 9:24 PM EDT
Astronomical Twilight 4:32 AM EDT 10:03 PM EDT
Moon 3:57 PM EDT (8/9) 1:14 AM EDT (8/9)
Length of Visible Light 14h 59m
Length of Day
14h 00m
Waxing Gibbous, 70% of the Moon is Illuminated
Aug 9
Waxing Gibbous
Aug 15
Full
Aug 23
Last Quarter
Aug 30
New
Sep 5
First Quarter

Hourly Weather History & Observations

Time (EDT) Temp. Dew Point Humidity Pressure Visibility Wind Dir Wind Speed Gust Speed Precip Events Conditions
12:53 AM 64.9 °F 62.1 °F 90% 29.82 in 10.0 mi SSW 6.9 mph - N/A   Partly Cloudy
1:41 AM 68.0 °F 63.0 °F 84% 29.85 in 10.0 mi SW 5.8 mph - N/A   Mostly Cloudy
1:53 AM 66.9 °F 62.1 °F 84% 29.83 in 10.0 mi SW 5.8 mph - N/A   Mostly Cloudy
2:03 AM 66.0 °F 62.1 °F 87% 29.86 in 10.0 mi SW 5.8 mph - N/A   Scattered Clouds
2:53 AM 64.0 °F 61.0 °F 90% 29.83 in 10.0 mi SW 5.8 mph - N/A   Clear
3:53 AM 66.0 °F 62.1 °F 87% 29.82 in 10.0 mi SW 8.1 mph - N/A   Mostly Cloudy
4:53 AM 66.0 °F 62.1 °F 87% 29.83 in 10.0 mi SW 5.8 mph - 0.01 in   Mostly Cloudy
5:53 AM 64.0 °F 61.0 °F 90% 29.83 in 8.0 mi SSW 5.8 mph - 0.01 in   Clear
6:53 AM 63.0 °F 61.0 °F 93% 29.84 in 2.0 mi SSW 5.8 mph - N/A   Clear
7:12 AM 64.0 °F 61.0 °F 90% 29.87 in 4.0 mi SSW 5.8 mph - N/A   Clear
7:53 AM 66.0 °F 63.0 °F 90% 29.86 in 7.0 mi South 4.6 mph - N/A   Partly Cloudy
8:53 AM 70.0 °F 62.1 °F 76% 29.86 in 10.0 mi WNW 6.9 mph - N/A   Scattered Clouds
9:53 AM 72.0 °F 62.1 °F 71% 29.86 in 10.0 mi WNW 9.2 mph - N/A   Mostly Cloudy
10:53 AM 73.9 °F 59.0 °F 59% 29.86 in 10.0 mi NW 12.7 mph - N/A   Partly Cloudy
11:53 AM 75.9 °F 57.9 °F 54% 29.87 in 10.0 mi West 10.4 mph 18.4 mph N/A   Scattered Clouds
12:53 PM 75.9 °F 55.9 °F 50% 29.86 in 10.0 mi NW 11.5 mph - N/A   Partly Cloudy
1:53 PM 75.9 °F 55.9 °F 50% 29.85 in 10.0 mi NNW 9.2 mph - N/A   Mostly Cloudy
2:53 PM 78.1 °F 55.0 °F 45% 29.84 in 10.0 mi WNW 10.4 mph - N/A   Partly Cloudy
3:53 PM 78.1 °F 53.1 °F 42% 29.83 in 10.0 mi West 12.7 mph 21.9 mph N/A   Clear
4:53 PM 77.0 °F 52.0 °F 42% 29.83 in 10.0 mi West 9.2 mph - N/A   Scattered Clouds
5:53 PM 77.0 °F 54.0 °F 45% 29.84 in 10.0 mi West 9.2 mph - N/A   Partly Cloudy
6:53 PM 75.0 °F 53.1 °F 46% 29.86 in 10.0 mi NW 8.1 mph - N/A   Scattered Clouds
7:53 PM 72.0 °F 55.0 °F 55% 29.87 in 10.0 mi NW 6.9 mph - N/A   Mostly Cloudy
8:53 PM 70.0 °F 52.0 °F 53% 29.88 in 10.0 mi NNW 6.9 mph - N/A   Clear
9:53 PM 66.9 °F 50.0 °F 54% 29.91 in 10.0 mi NNW 3.5 mph - N/A   Clear
10:53 PM 64.9 °F 50.0 °F 58% 29.92 in 10.0 mi WNW 5.8 mph - N/A   Clear
11:53 PM 62.1 °F 50.0 °F 65% 29.93 in 10.0 mi West 3.5 mph - N/A   Clear